Home   Weather   Genoa   Past weeks

Flag for Italy Past Weather in Genoa, Italy — Yesterday and Last 2 Weeks

63 °F

Passing clouds.

Feels Like: 63 °F
Forecast: 54 / 67 °F
Wind: 3 mph from North

Location: Genova / Sestri

Current Time: Oct 27, 2016 at 10:45:20 PM

Latest Report: Oct 27, 2016 at 9:50 PM

Visibility: N/A

Pressure: 30.36 "Hg

Humidity: 64%

Dew Point: 50 °F

Location of GenoaLocation

Past Weather in Genoa — Graph


Genoa Temperature Yesterday

Maximum temperature yesterday: 70 °F (at 12:20 PM)
Minimum temperature yesterday: 63 °F (at 3:20 AM)
Average temperature yesterday: 65 °F

High & Low Weather Summary for the Past Weeks

High72 °F (Oct 27, 12:50 PM)94% (Oct 14, 1:50 PM)30.36 "Hg (Oct 14, 1:50 PM)
Low48 °F (Oct 14, 1:50 PM)35% (Oct 21, 1:50 PM)29.68 "Hg (Oct 14, 1:20 PM)
Average61 °F71%30.04 "Hg
* Reported Oct 12 9:20 PM — Oct 27 9:20 PM, Genoa, Weather by CustomWeather, © 2016

Note: Actual official high and low records may vary slightly from our data, if they occured in-between our weather recording intervals... More about our weather records


Genoa Weather History for the Previous 24 Hours

Scroll right to see more
Time TempWeatherWind HumidityBarometerVisibility
9:20 PM
Thu, Oct 27
63 °FClear.2 mph59%30.36 "Hg10 mi
8:50 PM63 °FPassing clouds.7 mph64%30.33 "HgN/A
8:20 PM64 °FPassing clouds.7 mph60%30.33 "HgN/A
7:50 PM64 °FClear.6 mph60%30.33 "Hg10 mi
7:20 PM64 °FClear.3 mph56%30.30 "Hg10 mi
6:50 PM66 °FClear.8 mph52%30.30 "Hg10 mi
6:20 PM68 °FPassing clouds.6 mph49%30.27 "HgN/A
5:50 PM70 °FPassing clouds.9 mph43%30.27 "HgN/A
5:20 PM70 °FPassing clouds.10 mph46%30.27 "HgN/A
4:50 PM72 °FPassing clouds.12 mph44%30.27 "HgN/A
4:20 PM72 °FPassing clouds.12 mph44%30.27 "HgN/A
3:50 PM72 °FPassing clouds.9 mph47%30.27 "HgN/A
3:20 PM72 °FPassing clouds.13 mph44%30.27 "HgN/A
2:50 PM72 °FPassing clouds.14 mph41%30.27 "HgN/A
2:20 PM72 °FPassing clouds.12 mph44%30.27 "HgN/A
1:50 PM72 °FSunny.9 mph44%30.27 "Hg10 mi
1:20 PM72 °FPassing clouds.10 mph44%30.27 "HgN/A
12:50 PM72 °FPassing clouds.9 mph44%30.27 "HgN/A
12:20 PM70 °FPassing clouds.10 mph53%30.27 "HgN/A
11:50 AM68 °FPassing clouds.9 mph60%30.27 "HgN/A
11:20 AM68 °FPassing clouds.8 mph60%30.27 "HgN/A
10:50 AM70 °FSunny.2 mph57%30.27 "Hg10 mi
10:20 AM66 °FSunny.5 mph60%30.27 "Hg10 mi
9:50 AM64 °FSunny.6 mph68%30.27 "Hg10 mi
9:20 AM64 °FPassing clouds.5 mph64%30.27 "HgN/A
8:50 AM64 °FSunny.2 mph68%30.27 "Hg10 mi
8:20 AM64 °FSunny.5 mph68%30.24 "Hg10 mi
7:50 AM63 °FPassing clouds.3 mph73%30.21 "HgN/A
7:20 AM61 °FClear.1 mph77%30.21 "Hg10 mi
6:50 AM61 °FClear.3 mph77%30.21 "Hg10 mi
6:20 AM63 °FClear.7 mph73%30.21 "Hg10 mi
5:50 AM63 °FPassing clouds.7 mph73%30.21 "HgN/A
5:20 AM63 °FPassing clouds.6 mph73%30.18 "HgN/A
4:50 AM63 °FPassing clouds.7 mph73%30.18 "HgN/A
3:50 AM64 °FClear.3 mph68%30.18 "Hg10 mi
3:20 AM64 °FClear.8 mph68%30.18 "Hg10 mi
2:50 AM66 °FPassing clouds.13 mph64%30.18 "HgN/A
2:20 AM66 °FPassing clouds.9 mph64%30.15 "HgN/A
1:50 AM64 °FPassing clouds.10 mph68%30.15 "HgN/A
1:20 AM66 °FPassing clouds.13 mph60%30.15 "HgN/A
12:20 AM64 °FPassing clouds.12 mph64%30.15 "HgN/A
11:50 PM
Wed, Oct 26
63 °FPassing clouds.8 mph68%30.15 "HgN/A
11:20 PM63 °FPassing clouds.5 mph73%30.15 "HgN/A
10:50 PM63 °FPassing clouds.10 mph73%30.15 "HgN/A
10:20 PM66 °FPassing clouds.8 mph64%30.15 "HgN/A
Weather by CustomWeather, © 2016

See weather overviewHow to use our weather pages